Terug naar catalogus

FENGYUN 1C DEB

ActiefSSO
NORAD 30309·DEBRIS·🇨🇳 China

Gelanceerd May 10, 1999 vanaf Taiyuan Satellite Launch Center

Loading…

Volgende Passages (komende 24 uur)

TLE

VersSource: Space-Track

Epoch: Sep 13, 2026, 17:24 UTC

1 30309U 99025ZW  26256.72500579  .00000199  00000-0  17826-3 0  9992
2 30309  99.1917 317.7013 0093652 164.7881 195.6130 13.93699245998636

Volg FENGYUN 1C DEB in realtime met AllMySat

Download on the App Store